FALCON 9 DEB (44774 NORAD) Tracking and Keplerian Element Data

This shows tracking and keplerian element data for the satellite.

Feedback or suggestion? Click here.




ElementValue
Catalog44774
NameFALCON 9 DEB
Epoch Orbit473
Epoch Day345.17105049
Epoch Year2019
RAAN18.8169
Inclination53.0049
Eccentricity0.0013828
Argument of Perigee60.7518
Mean Anonmoly299.4892
Mean Motion16.0324688
Decay Rate0.00154855
L11 44774U 19074BP 19345.17105049 .00154855 21774-4 24589-3 0 9990
L22 44774 53.0049 18.8169 0013828 60.7518 299.4892 16.03246880 4736

Live tracking and technical data element details for FALCON 9 DEB (NORAD 44774). FALCON 9 DEB can be tracked NOW for your location showing map with azimuth and elevation plus other details from your city location.

Track the satellite on the map from your city or location and see movement details for azimuth, elevation, latitude, longitude, range, height, and movement on the map or in text.







IsCatalogInMostPopularTable: catalog: 44774, numindb: 43
Update: records affected: 1



GetName: 44774 FALCON 9 DEB

Hit Count: updated at: Fri, 03 Apr 2020 22:52:11 GMT